This demonstration page uses our WeatherBlox Daily Observations layout. Learn more.

Left ArrowRight Arrow

Hourly Observations for February 17, 2021

Temp ( °F °C ) Dew Point ( °F °C ) Humidity (%) Winds ( mph kmh ) Pressure ( in mb ) Visibility ( mi km ) Precip ( " mm )
12:15 am 00:15 undefined 7 -13.7 3 -16 83 83 S 10 17 30.20 1023 10 16 N/A
12:35 am 00:35 undefined 8 -13.6 4 -15.8 84 84 S 9 15 30.19 1022 10 16 N/A
12:55 am 00:55 undefined 8 -13.6 4 -15.8 84 84 S 12 19 30.19 1022 10 16 N/A
1:15 am 01:15 undefined 8 -13.6 4 -15.8 84 84 SSE 9 15 30.20 1023 10 16 N/A
1:35 am 01:35 undefined 7 -13.8 3 -16 84 84 SSE 10 17 30.20 1023 10 16 N/A
1:55 am 01:55 Partly Cloudy with Isolated Snow Showers 7 -13.8 3 -16 84 84 S 10 17 30.20 1023 10 16 N/A
2:15 am 02:15 undefined 7 -13.8 3 -16 84 84 SSE 10 17 30.20 1023 10 16 N/A
2:35 am 02:35 undefined 7 -13.8 3 -16.1 83 83 SSE 8 13 30.20 1023 10 16 N/A
2:55 am 02:55 undefined 7 -14 3 -16.2 84 84 SSE 8 13 30.21 1023 10 16 N/A
3:15 am 03:15 undefined 7 -14 3 -16.3 83 83 SSE 12 19 30.21 1023 10 16 N/A
3:35 am 03:35 undefined 7 -14 3 -16.3 83 83 SSE 12 19 30.20 1023 10 16 N/A
3:55 am 03:55 undefined 7 -14 3 -16.3 83 83 SSE 12 19 30.21 1023 10 16 N/A
4:15 am 04:15 undefined 7 -14 3 -16.3 83 83 SSE 9 15 30.21 1023 10 16 N/A
4:35 am 04:35 undefined 7 -14.1 2 -16.4 83 83 SSE 10 17 30.21 1023 10 16 N/A
4:55 am 04:55 Partly Cloudy with Isolated Snow Showers 7 -14 3 -16.2 84 84 SSE 9 15 30.21 1023 10 16 N/A
5:15 am 05:15 Partly Cloudy with Isolated Snow Showers 7 -14 3 -16.2 84 84 S 9 15 30.22 1023 10 16 N/A
5:35 am 05:35 Partly Cloudy with Isolated Snow Showers 7 -14 3 -16.2 84 84 SSE 10 17 30.22 1023 10 16 N/A
5:55 am 05:55 Partly Cloudy with Isolated Snow Showers 7 -14 3 -16.2 84 84 S 9 15 30.23 1024 10 16 N/A
6:15 am 06:15 Partly Cloudy with Isolated Snow Showers 7 -14 3 -16.1 84 84 SSE 8 13 30.23 1024 10 16 N/A
6:35 am 06:35 Partly Cloudy with Isolated Snow Showers 7 -14 3 -16.1 84 84 S 8 13 30.24 1024 10 16 N/A
6:55 am 06:55 Partly Cloudy with Isolated Snow Showers 7 -14 3 -16.1 84 84 S 6 9 30.24 1024 10 16 N/A
7:15 am 07:15 Partly Cloudy with Isolated Snow Showers 7 -14 3 -16.1 84 84 S 7 11 30.25 1024 10 16 N/A
7:35 am 07:35 Partly Cloudy with Isolated Snow Showers 7 -13.8 3 -16 84 84 S 8 13 30.24 1024 10 16 N/A
7:55 am 07:55 Partly Cloudy with Isolated Snow Showers 7 -13.7 3 -16 83 83 S 8 13 30.25 1024 10 16 N/A
8:15 am 08:15 Partly Cloudy with Isolated Snow Showers 8 -13.6 4 -15.8 84 84 S 7 11 30.26 1025 7 11 N/A
8:35 am 08:35 Partly Cloudy with Isolated Snow Showers 8 -13.4 4 -15.6 84 84 S 5 7 30.27 1025 5 8 N/A
8:55 am 08:55 Partly Cloudy with Isolated Snow Showers 8 -13.3 4 -15.6 83 83 S 8 13 30.28 1025 5 8 N/A
9:15 am 09:15 Partly Cloudy with Isolated Snow Showers 8 -13.2 4 -15.6 82 82 S 8 13 30.28 1025 7 11 N/A
9:35 am 09:35 Partly Cloudy with Isolated Snow Showers 9 -13 4 -15.5 82 82 S 7 11 30.28 1025 7 11 N/A
9:55 am 09:55 Partly Cloudy with Isolated Snow Showers 9 -12.8 4 -15.5 80 80 S 6 9 30.28 1026 7 11 N/A
10:15 am 10:15 undefined 10 -12.5 5 -15.2 80 80 S 6 9 30.27 1025 10 16 N/A
10:35 am 10:35 Partly Cloudy with Isolated Snow Showers 10 -12.3 5 -15.1 80 80 S 7 11 30.28 1025 10 16 N/A
10:55 am 10:55 undefined 10 -12.1 5 -15 79 79 SSW 7 11 30.28 1025 10 16 N/A
11:15 am 11:15 Partly Cloudy with Isolated Snow Showers 11 -11.8 5 -14.8 79 79 SW 6 9 30.27 1025 10 16 N/A
11:35 am 11:35 Partly Cloudy with Isolated Snow Showers 11 -11.5 6 -14.6 78 78 SW 6 9 30.28 1025 10 16 N/A
11:55 am 11:55 Partly Cloudy with Isolated Snow Showers 12 -11.1 6 -14.4 77 77 SW 5 7 30.28 1025 10 16 N/A
12:15 pm 12:15 Partly Cloudy with Isolated Snow Showers 12 -10.9 6 -14.2 77 77 SW 3 6 30.27 1025 7 11 N/A
12:35 pm 12:35 Partly Cloudy with Isolated Snow Showers 13 -10.5 7 -13.8 77 77 SW 3 6 30.27 1025 7 11 N/A
12:55 pm 12:55 Partly Cloudy with Isolated Snow Showers 14 -10.2 7 -13.7 76 76 N N/A 30.26 1025 10 16 N/A
1:15 pm 13:15 Partly Cloudy with Isolated Snow Showers 14 -10 8 -13.6 75 75 N N/A 30.26 1025 7 11 N/A
1:35 pm 13:35 Partly Cloudy with Isolated Snow Showers 14 -10 8 -13.6 75 75 N N/A 30.26 1025 4 6 N/A
1:55 pm 13:55 Partly Cloudy with Isolated Snow Showers 14 -9.8 8 -13.4 75 75 N N/A 30.26 1025 5 8 N/A
2:15 pm 14:15 undefined 15 -9.5 9 -13 76 76 N N/A 30.26 1025 10 16 N/A
2:35 pm 14:35 Partly Cloudy with Isolated Snow Showers 15 -9.5 8 -13.1 75 75 N N/A 30.25 1024 5 8 N/A
2:55 pm 14:55 undefined 16 -9.1 9 -12.7 75 75 W 3 6 30.26 1025 10 16 N/A
3:15 pm 15:15 Partly Cloudy with Isolated Snow Showers 16 -9.1 8 -13.1 73 73 NW 3 6 30.26 1025 10 16 N/A
3:35 pm 15:35 Partly Cloudy with Isolated Snow Showers 16 -9 9 -12.8 74 74 N N/A 30.25 1025 10 16 N/A
3:55 pm 15:55 Partly Cloudy with Isolated Snow Showers 16 -8.7 9 -12.8 73 73 N N/A 30.25 1024 10 16 N/A
4:15 pm 16:15 undefined 16 -9 9 -13 73 73 N N/A 30.26 1025 10 16 N/A
4:35 pm 16:35 undefined 17 -8.6 9 -13 71 71 N N/A 30.26 1025 10 16 N/A
4:55 pm 16:55 undefined 15 -9.3 8 -13.2 74 74 N N/A 30.28 1025 10 16 N/A
5:15 pm 17:15 undefined 16 -9.1 9 -12.9 74 74 N N/A 30.28 1025 10 16 N/A
5:35 pm 17:35 undefined 15 -9.2 9 -12.6 77 77 N N/A 30.29 1026 10 16 N/A
5:55 pm 17:55 Partly Cloudy with Isolated Snow Showers 15 -9.5 9 -12.8 77 77 N N/A 30.30 1026 7 11 N/A
6:15 pm 18:15 Partly Cloudy with Isolated Snow Showers 15 -9.6 9 -12.9 77 77 N N/A 30.31 1026 7 11 N/A
6:35 pm 18:35 Partly Cloudy with Isolated Snow Showers 14 -9.9 8 -13.2 77 77 N N/A 30.32 1027 10 16 N/A
6:55 pm 18:55 undefined 13 -10.6 8 -13.5 79 79 N N/A 30.35 1028 10 16 N/A
7:15 pm 19:15 undefined 10 -12.3 5 -14.9 81 81 N N/A 30.38 1029 10 16 N/A
7:35 pm 19:35 undefined 11 -11.8 7 -14 84 84 N N/A 30.38 1029 10 16 N/A
7:55 pm 19:55 undefined 10 -12.1 6 -14.3 84 84 N N/A 30.39 1029 10 16 N/A
8:15 pm 20:15 undefined 7 -14.1 3 -16 86 86 N N/A 30.41 1030 10 16 N/A
8:35 pm 20:35 undefined 7 -13.8 4 -15.5 87 87 N N/A 30.43 1030 10 16 N/A
8:55 pm 20:55 undefined 8 -13.3 5 -14.9 88 88 N N/A 30.42 1030 10 16 N/A
9:15 pm 21:15 undefined 10 -12.5 7 -14.1 88 88 N N/A 30.42 1030 10 16 N/A
9:35 pm 21:35 undefined 11 -11.6 8 -13.5 86 86 N N/A 30.42 1030 10 16 N/A
9:55 pm 21:55 undefined 12 -11.2 8 -13.2 85 85 SW 3 6 30.43 1030 10 16 N/A
10:15 pm 22:15 undefined 12 -10.9 9 -12.9 85 85 N N/A 30.44 1031 10 16 N/A
10:35 pm 22:35 undefined 13 -10.5 9 -12.6 85 85 N N/A 30.43 1031 10 16 N/A
10:55 pm 22:55 Partly Cloudy with Isolated Snow Showers 15 -9.7 10 -12.1 83 83 WSW 3 6 30.43 1031 10 16 N/A
11:15 pm 23:15 Partly Cloudy with Isolated Snow Showers 15 -9.5 10 -12.1 82 82 N N/A 30.44 1031 10 16 N/A
11:35 pm 23:35 undefined 15 -9.5 10 -12.1 82 82 SW 3 6 30.44 1031 10 16 N/A
11:55 pm 23:55 undefined 14 -9.8 10 -12.5 81 81 SSW 5 7 30.44 1031 10 16 N/A

Powered by AerisWeather